Tracking 25710 objects as of 6-Jul-2022
HD Live streaming from Space Station
objects crossing your sky now

FENGYUN 1C DEB

Track FENGYUN 1C DEB now!
10-day predictions


NORAD ID: 31954
Int'l Code: 1999-025CNF
Perigee: 835.0 km
Apogee: 971.8 km
Inclination: 98.2 °
Period: 102.9 minutes
Semi major axis: 7274 km
RCS: 0.0089 m2 (small)
Launch date: May 10, 1999
Source: People's Republic of China (PRC)
Launch site: Taiyaun Space Center, China (TSC)

Note: This is SATELLITE DEBRIS
aabbcc
Your satellite tracking list
Your tracking list is empty




NASA's NSSDC Master Catalog

Two Line Element Set (TLE):
1 31954U 99025CNF 22173.15635971  .00001047  00000-0  71848-3 0  9992
2 31954  98.1507 297.0527 0094008 166.2118 194.1649 13.99282177389151
Source of the keplerian elements: AFSPC